Flag for U.S.A. Weather past 2 weeks in Garland, Texas, U.S.A.

Now
70 °F

Passing clouds.


Feels Like: 70 °F
Forecast: 78 / 96 °F
Wind: No wind

Location: Mesquite Metro Airport

Current Time: Jul 24, 2014 at 6:38:01 AM

Latest Report: Jul 24, 2014 at 5:35 AM


Visibility: 10 mi

Pressure: 30.05 "Hg

Humidity: 92%

Dew point: 67 °F

Location of GarlandLocation

Historic Weather in Garland — Graph

°F

Garland temperature yesterday

Maximum temperature yesterday: 93 °F (at 4:50 PM)
Minimum temperature yesterday: 69 °F (at 5:35 AM)
Average temperature yesterday: 79 °F

Past Weeks' High & Low Weather Summary

 TemperatureHumidityPressure
High99 °F (Jul 13, 2:55 PM)100% (Jul 12, 5:47 AM)30.23 "Hg (Jul 12, 5:47 AM)
Low63 °F (Jul 20, 6:50 AM)24% (Jul 15, 4:50 PM)29.88 "Hg (Jul 16, 7:50 PM)
Average77 °F73%30.02 "Hg
* Reported Jul 9 7:50 AM — Jul 24 5:15 AM, Garland, Weather by CustomWeather, © 2014

Note: Actual official high and low records may vary slightly from our data, if they occured in-between our weather recording intervals... More about our weather records

Advertising

Garland weather history for previous 24 hours

 ConditionsComfort  
Time TempWeatherWind HumidityBarometerVisibility
5:15 AM
Jul 24
70 °FPassing clouds.No wind92%30.04 "Hg10 mi
4:55 AM70 °FClear.No wind92%30.04 "Hg10 mi
4:35 AM71 °FClear.No wind91%30.03 "Hg10 mi
4:15 AM71 °FPassing clouds.No wind90%30.03 "Hg10 mi
3:55 AM72 °FPassing clouds.3 mph88%30.03 "Hg10 mi
3:35 AM72 °FPassing clouds.No wind88%30.03 "Hg10 mi
3:15 AM72 °FClear.6 mph86%30.03 "Hg10 mi
2:55 AM73 °FClear.5 mph87%30.02 "Hg10 mi
2:35 AM73 °FClear.5 mph88%30.01 "Hg10 mi
2:15 AM74 °FClear.No wind83%29.99 "Hg10 mi
1:55 AM74 °FClear.6 mph82%29.98 "Hg10 mi
1:35 AM74 °FClear.6 mph79%29.98 "Hg10 mi
1:15 AM74 °FClear.8 mph79%29.99 "Hg10 mi
12:35 AM75 °FClear.8 mph76%30.00 "Hg10 mi
12:15 AM74 °FClear.3 mph77%30.01 "Hg10 mi
11:55 PM
Jul 23
74 °FClear.No wind80%30.03 "Hg10 mi
11:35 PM74 °FClear.6 mph76%30.02 "Hg10 mi
11:15 PM74 °FClear.5 mph77%30.04 "Hg10 mi
10:55 PM74 °FPassing clouds.6 mph79%30.05 "Hg10 mi
10:35 PM74 °FPassing clouds.3 mph81%30.07 "Hg10 mi
10:15 PM74 °FClear.6 mph80%30.07 "Hg10 mi
9:55 PM74 °FClear.7 mph79%30.08 "Hg10 mi
6:55 PM91 °FSunny.No wind49%30.01 "Hg10 mi
5:52 PM91 °FHot.3 mph46%30.01 "Hg10 mi
4:50 PM93 °FScattered clouds.6 mph41%30.02 "Hg10 mi
3:50 PM91 °FScattered clouds.6 mph44%30.03 "Hg10 mi
2:55 PM91 °FScattered clouds.8 mph44%30.06 "Hg10 mi
1:50 PM91 °FScattered clouds.6 mph41%30.08 "Hg10 mi
12:50 PM90 °FSunny.No wind46%30.09 "Hg10 mi
11:50 AM86 °FSunny.No wind52%30.10 "Hg10 mi
10:50 AM84 °FSunny.3 mph55%30.12 "Hg10 mi
9:50 AM82 °FSunny.No wind58%30.12 "Hg10 mi
8:50 AM79 °FSunny.No wind74%30.12 "Hg10 mi
7:50 AM73 °FFog.No wind89%30.10 "Hg5 mi
6:50 AM70 °FFog.No wind100%30.10 "Hg4 mi
Weather by CustomWeather, © 2014

See weather overviewHow to use our weather pages